| time (UTC) | temp F | wind direction | speed knots | gust knots | rain 1hr in | rain 24hr in | rain mn in | humidity % | barometer mb |
| 20260508024525 | 54 | 351 | 1.7 | 2.6 | 0.00 | 0.00 | 0.00 | 32 | 1011.1 |
| 20260508023020 | 54 | 333 | 0.9 | 1.7 | 0.00 | 0.00 | 0.00 | 32 | 1011.0 |
| 20260508021520 | 55 | 333 | 0.0 | 0.9 | 0.00 | 0.00 | 0.00 | 32 | 1011.0 |
| 20260508020027 | 56 | 333 | 0.9 | 2.6 | 0.00 | 0.00 | 0.00 | 31 | 1010.8 |
| 20260508014519 | 57 | 333 | 1.7 | 3.5 | 0.00 | 0.00 | 0.00 | 30 | 1010.6 |
| 20260508013018 | 57 | 332 | 2.6 | 3.5 | 0.00 | 0.00 | 0.00 | 30 | 1010.5 |
| 20260508011520 | 57 | 330 | 2.6 | 3.5 | 0.00 | 0.00 | 0.00 | 30 | 1010.3 |
| 20260508010020 | 58 | 334 | 3.5 | 5.2 | 0.00 | 0.00 | 0.00 | 29 | 1010.2 |
| 20260508004516 | 58 | 329 | 4.3 | 6.1 | 0.00 | 0.00 | 0.00 | 28 | 1010.2 |
| 20260508003016 | 59 | 322 | 3.5 | 7.8 | 0.00 | 0.00 | 0.00 | 29 | 1010.3 |
| 20260508001515 | 59 | 334 | 7.0 | 10.4 | 0.00 | 0.00 | 0.00 | 28 | 1010.3 |
| 20260508000014 | 59 | 330 | 4.3 | 9.6 | 0.00 | 0.00 | 0.00 | 27 | 1010.4 |
| 20260507234513 | 60 | 293 | 4.3 | 7.8 | 0.00 | 0.00 | 0.00 | 27 | 1010.4 |
| 20260507233012 | 60 | 337 | 6.1 | 9.6 | 0.00 | 0.00 | 0.00 | 27 | 1010.4 |
| 20260507231511 | 61 | 321 | 4.3 | 8.7 | 0.00 | 0.00 | 0.00 | 27 | 1010.7 |
| 20260507230010 | 60 | 322 | 4.3 | 7.8 | 0.00 | 0.00 | 0.00 | 27 | 1010.6 |
| 20260507224512 | 60 | 302 | 4.3 | 9.6 | 0.00 | 0.00 | 0.00 | 27 | 1010.8 |
| 20260507223009 | 60 | 328 | 5.2 | 13.0 | 0.00 | 0.00 | 0.00 | 27 | 1010.9 |
| 20260507221508 | 59 | 329 | 6.1 | 9.6 | 0.00 | 0.00 | 0.00 | 27 | 1010.8 |
| 20260507220005 | 60 | 307 | 2.6 | 12.2 | 0.00 | 0.00 | 0.00 | 27 | 1011.0 |
| 20260507214510 | 59 | 288 | 5.2 | 10.4 | 0.00 | 0.00 | 0.00 | 27 | 1011.1 |
| 20260507200035 | 58 | 323 | 7.0 | 13.9 | 0.00 | 0.00 | 0.00 | 29 | 1011.8 |
| 20260507194535 | 57 | 306 | 4.3 | 12.2 | 0.00 | 0.00 | 0.00 | 31 | 1012.0 |
| 20260507193033 | 56 | 340 | 7.8 | 13.9 | 0.00 | 0.00 | 0.00 | 30 | 1012.3 |
| 20260507191532 | 58 | 302 | 7.0 | 11.3 | 0.00 | 0.00 | 0.00 | 31 | 1012.2 |
| 20260507190030 | 56 | 338 | 4.3 | 8.7 | 0.00 | 0.00 | 0.00 | 32 | 1012.2 |
| 20260507184528 | 56 | 341 | 7.0 | 12.2 | 0.00 | 0.00 | 0.00 | 31 | 1012.1 |
| 20260507183026 | 55 | 346 | 5.2 | 8.7 | 0.00 | 0.00 | 0.00 | 34 | 1012.4 |
| 20260507181523 | 54 | 350 | 4.3 | 10.4 | 0.00 | 0.00 | 0.00 | 33 | 1012.5 |
| 20260507180022 | 54 | 314 | 5.2 | 12.2 | 0.00 | 0.00 | 0.00 | 33 | 1012.5 |
| 20260507174519 | 54 | 26 | 2.6 | 5.2 | 0.00 | 0.00 | 0.00 | 36 | 1012.6 |
| 20260507173030 | 54 | 323 | 3.5 | 10.4 | 0.00 | 0.00 | 0.00 | 35 | 1012.8 |
| 20260507171516 | 54 | 332 | 4.3 | 8.7 | 0.00 | 0.00 | 0.00 | 38 | 1012.9 |
| 20260507170014 | 53 | 226 | 5.2 | 8.7 | 0.00 | 0.00 | 0.00 | 39 | 1012.9 |
| 20260507164512 | 52 | 341 | 1.7 | 8.7 | 0.00 | 0.00 | 0.00 | 41 | 1013.1 |
| 20260507163010 | 52 | 26 | 1.7 | 8.7 | 0.00 | 0.00 | 0.00 | 43 | 1013.2 |
| 20260507161519 | 51 | 251 | 1.7 | 7.8 | 0.00 | 0.00 | 0.00 | 43 | 1013.1 |
| 20260507160006 | 51 | 1 | 2.6 | 8.7 | 0.00 | 0.00 | 0.00 | 46 | 1013.2 |
| 20260507154506 | 51 | 337 | 2.6 | 7.8 | 0.00 | 0.00 | 0.00 | 47 | 1013.2 |
| 20260507153003 | 50 | 332 | 4.3 | 9.6 | 0.00 | 0.00 | 0.00 | 47 | 1013.3 |
| 20260507151502 | 50 | 350 | 2.6 | 8.7 | 0.00 | 0.00 | 0.00 | 47 | 1013.4 |
| 20260507150001 | 49 | 349 | 2.6 | 6.1 | 0.00 | 0.00 | 0.00 | 50 | 1013.3 |
| 20260507144617 | 50 | 333 | 3.5 | 7.0 | 0.00 | 0.00 | 0.00 | 47 | 1013.4 |
| 20260507143058 | 49 | 37 | 1.7 | 5.2 | 0.00 | 0.00 | 0.00 | 51 | 1013.5 |
| 20260507141615 | 48 | 18 | 1.7 | 9.6 | 0.00 | 0.00 | 0.00 | 52 | 1013.6 |
| 20260507140051 | 48 | 9 | 3.5 | 7.0 | 0.00 | 0.00 | 0.00 | 52 | 1013.6 |
| 20260507134550 | 48 | 47 | 2.6 | 6.1 | 0.00 | 0.00 | 0.00 | 51 | 1013.6 |
| 20260507133048 | 47 | 65 | 1.7 | 4.3 | 0.00 | 0.00 | 0.00 | 52 | 1013.7 |
| 20260507131545 | 46 | 31 | 3.5 | 7.0 | 0.00 | 0.00 | 0.00 | 54 | 1014.1 |
| 20260507130039 | 44 | 51 | 2.6 | 5.2 | 0.00 | 0.00 | 0.00 | 59 | 1014.1 |
| 20260507124535 | 41 | 60 | 3.5 | 7.0 | 0.00 | 0.00 | 0.00 | 64 | 1014.3 |
| 20260507123031 | 38 | 35 | 3.5 | 5.2 | 0.00 | 0.00 | 0.00 | 67 | 1014.3 |
| 20260507121531 | 38 | 31 | 1.7 | 4.3 | 0.00 | 0.00 | 0.00 | 67 | 1014.4 |
| 20260507120029 | 37 | 13 | 0.0 | 3.5 | 0.00 | 0.00 | 0.00 | 69 | 1014.7 |
| 20260507114529 | 36 | 10 | 1.7 | 4.3 | 0.00 | 0.00 | 0.00 | 69 | 1014.4 |
| 20260507113028 | 36 | 36 | 3.5 | 5.2 | 0.00 | 0.00 | 0.00 | 68 | 1013.8 |
| 20260507111539 | 38 | 43 | 2.6 | 3.5 | 0.00 | 0.00 | 0.00 | 67 | 1013.8 |
| 20260507110026 | 38 | 68 | 0.9 | 3.5 | 0.00 | 0.00 | 0.00 | 66 | 1013.6 |
| 20260507104524 | 37 | 44 | 2.6 | 4.3 | 0.00 | 0.00 | 0.00 | 67 | 1014.0 |
| 20260507103023 | 37 | 52 | 1.7 | 3.5 | 0.00 | 0.00 | 0.00 | 67 | 1013.9 |
| 20260507101522 | 37 | 43 | 2.6 | 4.3 | 0.00 | 0.00 | 0.00 | 67 | 1014.1 |
| 20260507100020 | 36 | 44 | 2.6 | 4.3 | 0.00 | 0.00 | 0.00 | 69 | 1014.2 |
| 20260507094518 | 37 | 58 | 0.9 | 2.6 | 0.00 | 0.00 | 0.00 | 66 | 1014.3 |
| 20260507093021 | 37 | 144 | 1.7 | 2.6 | 0.00 | 0.00 | 0.00 | 66 | 1014.1 |
| 20260507091525 | 38 | 148 | 1.7 | 2.6 | 0.00 | 0.00 | 0.00 | 66 | 1014.1 |
| 20260507090018 | 38 | 148 | 0.9 | 2.6 | 0.00 | 0.00 | 0.00 | 66 | 1014.4 |
| 20260507084522 | 38 | 148 | 0.0 | 2.6 | 0.00 | 0.00 | 0.00 | 69 | 1014.6 |
| 20260507083012 | 38 | 148 | 0.0 | 1.7 | 0.00 | 0.00 | 0.00 | 73 | 1014.7 |
| 20260507081519 | 38 | 143 | 0.0 | 1.7 | 0.00 | 0.00 | 0.00 | 66 | 1014.9 |
| 20260507080007 | 38 | 103 | 0.9 | 2.6 | 0.00 | 0.00 | 0.00 | 67 | 1015.0 |
| 20260507074505 | 38 | 96 | 0.0 | 2.6 | 0.00 | 0.00 | 0.00 | 67 | 1015.4 |
| 20260507073007 | 38 | 84 | 1.7 | 2.6 | 0.00 | 0.00 | 0.00 | 65 | 1015.5 |
| 20260507071503 | 38 | 77 | 0.0 | 0.0 | 0.00 | 0.00 | 0.00 | 65 | 1015.7 |
| 20260507070002 | 37 | 85 | 0.0 | 0.0 | 0.00 | 0.00 | 0.00 | 65 | 1015.7 |
| 20260507064501 | 37 | 97 | 0.0 | 0.0 | 0.00 | 0.00 | 0.00 | 65 | 1015.7 |
| 20260507063101 | 38 | 98 | 0.9 | 2.6 | 0.00 | 0.00 | 0.00 | 64 | 1015.6 |
| 20260507061604 | 38 | 97 | 0.9 | 2.6 | 0.00 | 0.00 | 0.00 | 64 | 1015.7 |
| 20260507054604 | 38 | 97 | 0.0 | 0.0 | 0.00 | 0.00 | 0.00 | 62 | 1015.7 |
| 20260507053100 | 38 | 97 | 0.0 | 0.0 | 0.00 | 0.00 | 0.00 | 63 | 1015.8 |
| 20260507051555 | 38 | 97 | 0.0 | 1.7 | 0.00 | 0.00 | 0.00 | 63 | 1015.8 |
| 20260507050051 | 37 | 97 | 0.9 | 2.6 | 0.00 | 0.00 | 0.00 | 62 | 1015.8 |
| 20260507044559 | 38 | 97 | 0.0 | 1.7 | 0.00 | 0.00 | 0.00 | 61 | 1015.9 |
| 20260507043151 | 38 | 97 | 1.7 | 2.6 | 0.00 | 0.00 | 0.00 | 59 | 1016.0 |
| 20260507041551 | 38 | 94 | 1.7 | 2.6 | 0.00 | 0.00 | 0.00 | 59 | 1016.0 |
| 20260507040049 | 39 | 94 | 0.0 | 2.6 | 0.00 | 0.00 | 0.00 | 60 | 1016.0 |
| 20260507034553 | 41 | 94 | 1.7 | 3.5 | 0.00 | 0.00 | 0.00 | 57 | 1016.0 |
| 20260507033048 | 42 | 94 | 0.9 | 3.5 | 0.00 | 0.00 | 0.00 | 56 | 1016.2 |
| 20260507031548 | 41 | 51 | 0.9 | 3.5 | 0.00 | 0.00 | 0.00 | 55 | 1016.4 |
| 20260507030053 | 42 | 43 | 2.6 | 4.3 | 0.00 | 0.00 | 0.00 | 53 | 1016.6 |